Вернуться в каталог

FENGYUN 1C DEB

АктивенSSO
NORAD 30557·DEBRIS·🇨🇳 China

Запущен May 10, 1999 с Taiyuan Satellite Launch Center

Loading…

Ближайшие Пролёты (ближайшие 24 часа)

TLE

СвежийSource: Space-Track

Эпоха: Sep 14, 2026, 14:42 UTC

1 30557U 99025AKX 26257.61264990  .00001646  00000-0  90409-3 0  9996
2 30557  98.9030 325.7479 0069690 172.9856 187.2308 14.11883492  1917

Отслеживайте FENGYUN 1C DEB в реальном времени с AllMySat

Download on the App Store